{"data":{"norad_id":65209,"epoch":"2026-09-20T11:48:48.984768Z","epoch_age_seconds":121681,"freshness":"FRESH","line1":"1 65209U 25176M   26263.49223362  .00013719  00000+0  41608-3 0  9995","line2":"2 65209  53.1602 323.7736 0001069  76.7571 283.3551 15.34425198 63009","mean_motion":15.34425198,"eccentricity":0.0001069,"inclination_deg":53.1602,"raan_deg":323.7736,"arg_perigee_deg":76.7571,"mean_anomaly_deg":283.3551,"bstar":0.00041608,"rev_number":6300,"period_min":93.846216933672,"perigee_km":461.89706965013,"apogee_km":463.35962528142,"semimajor_km":6840.7653474658,"source":"CELESTRAK","updated_at":"2026-09-21T09:00:35.535465Z"}}